This demonstration page uses our WeatherBlox Daily Observations layout. Learn more.

38.88101, -77.10428

Hourly Observations for August 16, 2016

Temp ( °F °C ) Dew Point ( °F °C ) Humidity (%) Winds ( mph kmh ) Pressure ( in mb ) Visibility ( mi km ) Precip ( " mm )
12:52 am 00:52 Mostly Cloudy 76 24.4 73 22.8 91 91 S 5 7 30.21 1023 10 16.09344 0.001 0.001
1:09 am 01:09 Cloudy 76 24.4 73 22.8 91 91 WSW 7 11 30.21 1023 10 16.09344 0 0
1:52 am 01:52 Cloudy 76 24.4 73 22.8 91 91 SSW 6 9 30.21 1023 10 16.09344 0 0
2:52 am 02:52 Mostly Cloudy 75 23.9 73 22.8 94 94 WSW 3 6 30.18 1022 10 16.09344 0 0
3:52 am 03:52 Mostly Cloudy 76 24.4 73 22.8 91 91 SSE 6 9 30.18 1022 10 16.09344 0 0
3:55 am 03:55 Cloudy 76 24.4 73 22.8 91 91 SSE 5 7 30.18 1022 10 16.09344 0 0
4:30 am 04:30 Mostly Cloudy 75 23.9 72 22.2 90 90 SW 5 7 30.18 1022 10 16.09344 0 0
4:47 am 04:47 Mostly Cloudy 75 24 73 23 94 94 SSW 5 7 30.18 1022 10 16.09344 0 0
4:52 am 04:52 Mostly Cloudy 76 24.4 73 22.8 91 91 SSW 7 11 30.18 1022 10 16.09344 0 0
5:36 am 05:36 Mostly Cloudy 75 23.9 73 22.8 94 94 SW 6 9 30.18 1022 10 16.09344 0 0
5:52 am 05:52 Mostly Cloudy 75 23.9 72 22.2 90 90 WSW 6 9 30.18 1022 10 16.09344 0 0
6:52 am 06:52 Mostly Cloudy 75 23.9 73 22.8 94 94 SW 7 11 30.18 1022 10 16.09344 0 0
7:52 am 07:52 Mostly Cloudy 77 25 73 22.8 88 88 SSW 7 11 30.21 1023 10 16.09344 0 0
8:52 am 08:52 Mostly Cloudy 79 26.1 74 23.3 85 85 SSW 9 15 30.21 1023 10 16.09344 0 0
9:44 am 09:44 Mostly Cloudy 82 27.8 75 23.9 79 79 S 9 15 30.18 1022 10 16.09344 0 0
9:52 am 09:52 Mostly Cloudy 82 27.8 75 23.9 79 79 S 8 13 30.18 1022 10 16.09344 0 0
10:37 am 10:37 Mostly Cloudy 83 28.3 76 24.4 79 79 SSE 10 17 30.18 1022 10 16.09344 0 0
10:52 am 10:52 Partly Cloudy 83 28.3 76 24.4 79 79 SSE 10 17 30.18 1022 10 16.09344 0 0
11:52 am 11:52 Partly Cloudy 86 30 76 24.4 72 72 SSE 8 13 30.18 1022 10 16.09344 0 0
12:52 pm 12:52 Partly Cloudy 90 32.2 77 25 66 66 S 12 19 30.15 1021 10 16.09344 0 0
1:52 pm 13:52 Partly Cloudy 93 33.9 77 25 60 60 S 13 20 30.12 1020 10 16.09344 0 0
2:52 pm 14:52 Mostly Sunny 95 35 76 24.4 54 54 SSW 13 20 30.09 1019 10 16.09344 0 0
3:52 pm 15:52 Mostly Cloudy 96 35.6 74 23.3 49 49 S 13 20 30.09 1019 10 16.09344 0 0
4:52 pm 16:52 Mostly Cloudy 96 35.6 74 23.3 49 49 S 16 26 30.06 1018 10 16.09344 0 0
5:52 pm 17:52 Mostly Cloudy 94 34.4 73 22.8 51 51 SSW 14 22 30.06 1018 10 16.09344 0 0
6:52 pm 18:52 Partly Cloudy 92 33.3 74 23.3 56 56 S 14 22 30.06 1018 10 16.09344 0 0
7:52 pm 19:52 Partly Cloudy 90 32.2 74 23.3 59 59 S 13 20 30.06 1018 10 16.09344 0 0
8:52 pm 20:52 Mostly Cloudy 89 31.7 74 23.3 61 61 S 9 15 30.06 1018 10 16.09344 0 0
9:52 pm 21:52 Mostly Cloudy 87 30.6 75 23.9 67 67 S 9 15 30.06 1018 10 16.09344 0 0
10:52 pm 22:52 Mostly Cloudy 87 30.6 74 23.3 65 65 SSW 13 20 30.09 1019 10 16.09344 0 0
11:52 pm 23:52 Mostly Cloudy 87 30.6 74 23.3 65 65 SSW 13 20 30.09 1019 10 16.09344 0 0

Powered by AerisWeather